SAS295 ESSA-EFHK

Flight info

Callsign SAS295
Flight time 0h 38m
Altitude 29000
Route TOVRI N851 RIKUM DCT RIRIP Y364 LAKUT
Aircraft A20N/M-SDE2E3FGHIRWXY/LB1

Departure

Time 2026-05-07 18:20
Airport Stockholm-Arlanda Airport (ESSA)

Arrival

Time 2026-05-07 18:58
Airport Helsinki Vantaa Airport (EFHK)
Time Latitude Longitude Altitude Speed Heading
2026-05-07 18:05 59.65242 17.92996 111 ft 0 kts 71°
2026-05-07 18:12 59.65239 17.92978 110 ft 3 kts 71°
2026-05-07 18:12 59.65232 17.92941 111 ft 3 kts 71°
2026-05-07 18:12 59.65225 17.92900 110 ft 3 kts 71°
2026-05-07 18:12 59.65220 17.92858 110 ft 3 kts 88°
2026-05-07 18:13 59.65222 17.92814 110 ft 3 kts 104°
2026-05-07 18:13 59.65228 17.92773 110 ft 3 kts 110°
2026-05-07 18:13 59.65228 17.92770 110 ft 0 kts 110°
2026-05-07 18:15 59.65231 17.92778 109 ft 1 kts 73°
2026-05-07 18:16 59.65241 17.92797 110 ft 3 kts 33°
2026-05-07 18:16 59.65269 17.92796 111 ft 6 kts 347°
2026-05-07 18:16 59.65314 17.92753 111 ft 9 kts 332°
2026-05-07 18:16 59.65380 17.92682 112 ft 12 kts 331°
2026-05-07 18:17 59.65474 17.92581 107 ft 19 kts 332°
2026-05-07 18:17 59.65611 17.92482 103 ft 23 kts 346°
2026-05-07 18:17 59.65771 17.92426 105 ft 24 kts
2026-05-07 18:17 59.65938 17.92481 108 ft 24 kts 10°
2026-05-07 18:18 59.66101 17.92542 111 ft 24 kts 12°
2026-05-07 18:18 59.66267 17.92600 116 ft 24 kts
2026-05-07 18:18 59.66426 17.92653 118 ft 22 kts 360°
2026-05-07 18:18 59.66575 17.92574 120 ft 22 kts 333°
2026-05-07 18:19 59.66622 17.92432 122 ft 9 kts 271°
2026-05-07 18:19 59.66585 17.92360 122 ft 0 kts 193°
2026-05-07 18:19 59.66537 17.92340 123 ft 29 kts 190°
2026-05-07 18:19 59.66094 17.92182 119 ft 97 kts 191°
2026-05-07 18:20 59.65565 17.91988 107 ft 133 kts 190°
2026-05-07 18:20 59.64153 17.91433 401 ft 162 kts 189°
2026-05-07 18:20 59.63430 17.91114 812 ft 161 kts 189°
2026-05-07 18:20 59.62318 17.90715 1459 ft 162 kts 188°
2026-05-07 18:21 59.61206 17.90424 2109 ft 162 kts 182°
2026-05-07 18:21 59.60040 17.90388 2554 ft 174 kts 179°
2026-05-07 18:21 59.58778 17.90385 3000 ft 188 kts 179°
2026-05-07 18:21 59.57419 17.90395 3529 ft 201 kts 178°
2026-05-07 18:22 59.56047 17.91104 4183 ft 212 kts 149°
2026-05-07 18:22 59.55271 17.92334 4600 ft 221 kts 134°
2026-05-07 18:22 59.53992 17.95733 5133 ft 250 kts 110°
2026-05-07 18:22 59.53787 17.99247 5622 ft 267 kts 79°
2026-05-07 18:23 59.54454 18.02594 6619 ft 267 kts 56°
2026-05-07 18:23 59.55565 18.05632 7563 ft 273 kts 50°
2026-05-07 18:23 59.56725 18.08579 8465 ft 279 kts 50°
2026-05-07 18:23 59.57876 18.11718 9404 ft 286 kts 52°
2026-05-07 18:24 59.58993 18.15026 10293 ft 293 kts 54°
2026-05-07 18:24 59.60122 18.18543 10780 ft 315 kts 55°
2026-05-07 18:24 59.61317 18.22366 11125 ft 338 kts 56°
2026-05-07 18:24 59.62562 18.26401 11786 ft 348 kts 56°
2026-05-07 18:25 59.63827 18.30521 12653 ft 353 kts 56°
2026-05-07 18:25 59.65110 18.34699 13474 ft 359 kts 55°
2026-05-07 18:25 59.66414 18.38946 14252 ft 364 kts 55°
2026-05-07 18:25 59.67743 18.43274 14965 ft 370 kts 55°
2026-05-07 18:26 59.69093 18.47672 15667 ft 376 kts 55°
2026-05-07 18:26 59.70460 18.52134 16362 ft 382 kts 55°
2026-05-07 18:26 59.71850 18.56680 17049 ft 388 kts 55°
2026-05-07 18:26 59.73256 18.61287 17727 ft 394 kts 55°
2026-05-07 18:27 59.74666 18.65914 18383 ft 400 kts 55°
2026-05-07 18:27 59.76113 18.70675 18988 ft 405 kts 55°
2026-05-07 18:27 59.77570 18.75482 19609 ft 409 kts 55°
2026-05-07 18:27 59.79044 18.80352 20201 ft 414 kts 55°
2026-05-07 18:28 59.80535 18.85287 20786 ft 418 kts 55°
2026-05-07 18:28 59.82036 18.90264 21383 ft 423 kts 55°
2026-05-07 18:28 59.83554 18.95313 21973 ft 427 kts 55°
2026-05-07 18:28 59.85088 19.00423 22534 ft 432 kts 55°
2026-05-07 18:29 59.86639 19.05601 23107 ft 437 kts 55°
2026-05-07 18:29 59.88202 19.10833 23680 ft 442 kts 55°
2026-05-07 18:29 59.89777 19.16119 24151 ft 446 kts 55°
2026-05-07 18:29 59.91363 19.21452 24647 ft 449 kts 55°
2026-05-07 18:30 59.92959 19.26830 25134 ft 452 kts 55°
2026-05-07 18:30 59.94564 19.32254 25594 ft 456 kts 55°
2026-05-07 18:30 59.96102 19.37731 26042 ft 462 kts 60°
2026-05-07 18:30 59.97342 19.43699 26481 ft 469 kts 68°
2026-05-07 18:31 59.98211 19.50032 26915 ft 475 kts 74°
2026-05-07 18:31 59.98980 19.56458 27329 ft 478 kts 73°
2026-05-07 18:31 59.99770 19.62938 27748 ft 481 kts 73°
2026-05-07 18:31 60.00568 19.69483 28152 ft 485 kts 73°
2026-05-07 18:32 60.01363 19.76052 28538 ft 488 kts 74°
2026-05-07 18:32 60.02158 19.82676 28916 ft 491 kts 74°
2026-05-07 18:32 60.02954 19.89342 29137 ft 494 kts 74°
2026-05-07 18:33 60.04537 20.02731 29158 ft 494 kts 74°
2026-05-07 18:33 60.06099 20.16063 29157 ft 495 kts 74°
2026-05-07 18:34 60.07657 20.29485 29160 ft 495 kts 74°
2026-05-07 18:34 60.09203 20.42931 29159 ft 496 kts 75°
2026-05-07 18:35 60.10738 20.56410 29165 ft 496 kts 75°
2026-05-07 18:35 60.12262 20.69918 29162 ft 497 kts 75°
2026-05-07 18:36 60.13771 20.83439 29159 ft 497 kts 75°
2026-05-07 18:36 60.15271 20.97006 29158 ft 498 kts 75°
2026-05-07 18:37 60.16761 21.10626 29164 ft 498 kts 75°
2026-05-07 18:37 60.18234 21.24239 29154 ft 499 kts 75°
2026-05-07 18:38 60.19696 21.37883 29163 ft 499 kts 76°
2026-05-07 18:38 60.21138 21.51455 29164 ft 500 kts 76°
2026-05-07 18:39 60.22578 21.65155 29151 ft 500 kts 76°
2026-05-07 18:39 60.24003 21.78853 29159 ft 501 kts 76°
2026-05-07 18:40 60.25418 21.92602 29140 ft 501 kts 76°
2026-05-07 18:40 60.26820 22.06376 29143 ft 502 kts 76°
2026-05-07 18:41 60.28206 22.20141 28627 ft 500 kts 77°
2026-05-07 18:41 60.28892 22.27018 27865 ft 501 kts 77°
2026-05-07 18:41 60.29580 22.33942 26905 ft 505 kts 77°
2026-05-07 18:41 60.30267 22.40895 25922 ft 503 kts 77°
2026-05-07 18:42 60.30944 22.47802 24934 ft 498 kts 77°
2026-05-07 18:42 60.31600 22.54526 24030 ft 492 kts 77°
2026-05-07 18:42 60.32255 22.61272 23040 ft 486 kts 77°
2026-05-07 18:42 60.32896 22.67923 22337 ft 480 kts 77°
2026-05-07 18:43 60.33525 22.74501 21728 ft 473 kts 77°
2026-05-07 18:43 60.34141 22.80978 21112 ft 468 kts 77°
2026-05-07 18:43 60.34749 22.87405 20500 ft 462 kts 77°
2026-05-07 18:43 60.35346 22.93751 19903 ft 457 kts 77°
2026-05-07 18:44 60.35934 23.00028 19319 ft 452 kts 77°
2026-05-07 18:44 60.36512 23.06232 18742 ft 447 kts 77°
2026-05-07 18:44 60.37080 23.12367 18142 ft 442 kts 77°
2026-05-07 18:44 60.37640 23.18433 17513 ft 436 kts 77°
2026-05-07 18:45 60.38189 23.24421 16892 ft 431 kts 77°
2026-05-07 18:45 60.38731 23.30363 16271 ft 426 kts 77°
2026-05-07 18:45 60.39261 23.36203 15689 ft 420 kts 77°
2026-05-07 18:45 60.39784 23.41990 15110 ft 415 kts 77°
2026-05-07 18:46 60.40291 23.47636 14544 ft 411 kts 78°
2026-05-07 18:46 60.40798 23.53306 13992 ft 406 kts 78°
2026-05-07 18:46 60.41295 23.58889 13421 ft 401 kts 78°
2026-05-07 18:46 60.41782 23.64389 12893 ft 394 kts 78°
2026-05-07 18:47 60.42255 23.69769 12619 ft 381 kts 78°
2026-05-07 18:47 60.42702 23.74890 12410 ft 359 kts 78°
2026-05-07 18:47 60.43121 23.79723 12213 ft 338 kts 78°
2026-05-07 18:47 60.43516 23.84278 12028 ft 320 kts 78°
2026-05-07 18:48 60.43868 23.88641 11833 ft 313 kts 82°
2026-05-07 18:48 60.44113 23.93025 11379 ft 312 kts 82°
2026-05-07 18:48 60.44366 23.97360 10869 ft 307 kts 82°
2026-05-07 18:48 60.44618 24.01634 10375 ft 302 kts 82°
2026-05-07 18:49 60.44856 24.05705 10162 ft 286 kts 82°
2026-05-07 18:49 60.45081 24.09620 9876 ft 274 kts 82°
2026-05-07 18:49 60.45298 24.13410 9462 ft 267 kts 82°
2026-05-07 18:49 60.45508 24.17106 9058 ft 260 kts 82°
2026-05-07 18:50 60.45713 24.20723 8648 ft 256 kts 82°
2026-05-07 18:50 60.45912 24.24276 8249 ft 251 kts 82°
2026-05-07 18:50 60.46109 24.27786 7856 ft 251 kts 82°
2026-05-07 18:50 60.46303 24.31276 7465 ft 248 kts 82°
2026-05-07 18:51 60.46492 24.34686 7077 ft 245 kts 82°
2026-05-07 18:51 60.46681 24.38119 6705 ft 246 kts 82°
2026-05-07 18:51 60.46870 24.41560 6314 ft 245 kts 82°
2026-05-07 18:51 60.47056 24.44984 5907 ft 244 kts 82°
2026-05-07 18:52 60.47240 24.48387 5505 ft 239 kts 82°
2026-05-07 18:52 60.47412 24.51691 5113 ft 233 kts 82°
2026-05-07 18:52 60.47571 24.54933 4726 ft 228 kts 82°
2026-05-07 18:52 60.47718 24.58111 4315 ft 224 kts 82°
2026-05-07 18:53 60.47854 24.61228 3924 ft 220 kts 82°
2026-05-07 18:53 60.47815 24.64318 3532 ft 220 kts 97°
2026-05-07 18:53 60.47479 24.67331 3138 ft 218 kts 102°
2026-05-07 18:53 60.47083 24.70289 2747 ft 216 kts 102°
2026-05-07 18:54 60.46714 24.73219 2354 ft 210 kts 100°
2026-05-07 18:54 60.46393 24.76014 2061 ft 196 kts 99°
2026-05-07 18:54 60.46118 24.78602 2014 ft 192 kts 98°
2026-05-07 18:54 60.45807 24.81242 1999 ft 191 kts 109°
2026-05-07 18:55 60.45057 24.83498 2004 ft 197 kts 136°
2026-05-07 18:55 60.43962 24.85124 2016 ft 195 kts 149°
2026-05-07 18:55 60.42774 24.86429 2005 ft 194 kts 153°
2026-05-07 18:55 60.41567 24.87658 1999 ft 191 kts 153°
2026-05-07 18:56 60.40446 24.88819 1846 ft 175 kts 153°
2026-05-07 18:56 60.39374 24.89922 1606 ft 171 kts 153°
2026-05-07 18:56 60.38315 24.91014 1371 ft 170 kts 154°
2026-05-07 18:56 60.37296 24.92064 1146 ft 156 kts 154°
2026-05-07 18:57 60.36388 24.92999 952 ft 141 kts 154°
2026-05-07 18:57 60.35547 24.93864 755 ft 130 kts 155°
2026-05-07 18:57 60.34730 24.94703 583 ft 131 kts 155°
2026-05-07 18:57 60.33921 24.95537 403 ft 130 kts 155°
2026-05-07 18:58 60.33118 24.96362 223 ft 130 kts 155°
2026-05-07 18:58 60.32372 24.97109 156 ft 108 kts 154°
2026-05-07 18:58 60.31901 24.97602 153 ft 48 kts 150°
2026-05-07 18:58 60.31714 24.97709 153 ft 21 kts 204°
2026-05-07 18:59 60.31669 24.97620 159 ft 0 kts 238°
2026-05-07 19:01 60.31666 24.97612 160 ft 4 kts 239°
2026-05-07 19:01 60.31637 24.97475 161 ft 17 kts 255°
2026-05-07 19:01 60.31699 24.97313 161 ft 15 kts 328°
2026-05-07 19:01 60.31720 24.97206 161 ft 7 kts 257°
2026-05-07 19:02 60.31711 24.97165 161 ft 0 kts 245°
2026-05-07 19:02 60.31708 24.97154 161 ft 0 kts 246°